Back to catalog

TRITON 1

AliveMilitarySSO
NORAD 39427·PAYLOAD·🇬🇧 United Kingdom

Launched Nov 21, 2013 from Dombarovsky

Loading…

Next Passes (next 24 hours)

TLE

FreshSource: Space-Track

Epoch: Sep 14, 2026, 13:29 UTC

1 39427U 13066M   26257.56212466  .00001662  00000-0  20254-3 0  9996
2 39427  97.8155 165.3073 0088234 303.6153  55.6663 14.82041367687326

Track TRITON 1 in real time with AllMySat

Download on the App Store